Regional Weather Roundup
Issued by NWS

Home | Current Version | Previous Version | Graphics & Text | Print | Product List | Glossary On
Versions: 1 2 3 4 5 6 7 8 9 10 11 12 13 14 15 16 17 18 19 20 21 22 23 24 25 26 27 28 29 30 31 32 33 34 35 36 37 38 39 40 41 42 43 44 45 46 47 48 49 50
000
ASUS45 KBOU 260107
RWRCO

WEATHER ROUNDUP FOR COLORADO
NATIONAL WEATHER SERVICE DENVER/BOULDER CO
600 PM MST TUE NOV 25 2014

NOTE: "FAIR" INDICATES FEW OR NO CLOUDS BELOW 12000 FEET WITH NO
SIGNIFICANT WEATHER AND/OR OBSTRUCTIONS TO VISIBILITY.

COZ001>005-013-030-031-260200-
...NORTHWEST COLORADO...

CITY           SKY/WX    TMP DP  RH WIND       PRES   REMARKS
CRAIG          CLOUDY    28  21  75 E12       30.17S WCI  18
HAYDEN         CLOUDY    25  19  80 E9        30.17S WCI  15
MEEKER         CLOUDY    31  20  63 NE6       30.22S WCI  25
MOUNT WERNER   NOT AVBL
STEAMBOAT SPGS CLOUDY    23  22  95 CALM      30.18S
WALDEN         MOCLDY    28  21  74 W24       30.05R WCI  14
$$

COZ006>008-011-260200-
...WEST CENTRAL VALLEYS...

CITY           SKY/WX    TMP DP  RH WIND       PRES   REMARKS
GRAND JUNCTION MOCLDY    36  17  46 SW3       30.27F
MONTROSE       CLOUDY    33  18  53 E5        30.31S WCI  29
EAGLE          NOT AVBL
RIFLE          CLOUDY    28  21  75 E3        30.30S
DELTA          CLOUDY    38  21  49 E8        30.30S
NUCLA          CLOUDY    39  10  30 SE8       30.35R
$$

COZ017>023-064>068-260200-
...SOUTHWEST COLORADO...

CITY           SKY/WX    TMP DP  RH WIND       PRES   REMARKS
DURANGO        CLEAR     36  11  35 SW8       30.24R
CORTEZ         CLEAR     29   8  41 SE8       30.34R WCI  21
PAGOSA SPRINGS CLEAR     30   8  39 CALM      30.26S
TELLURIDE      NOT AVBL
WOLF CREEK PAS CLEAR     14   5  67 MISG      30.24S
$$

COZ009-010-012-014-032>034-037-058>063-260200-
...CENTRAL COLORADO...

CITY           SKY/WX    TMP DP  RH WIND       PRES   REMARKS
ASPEN          LGT SNOW  21  19  92 CALM      30.24R FOG
BUENA VISTA    CLOUDY    30  17  57 NW20G25   30.12R WCI  17
COPPER MTN     CLOUDY    18  10  73 W23       30.12S WCI   0
BERTHOUD PASS  NOT AVBL
COTTONWOOD PAS LGT SNOW  28  18  64 NW21G49   30.05F WCI  15
GUNNISON       CLOUDY    25  18  74 CALM      30.30S
KREMMLING      LGT SNOW  27  23  86 W16G24    30.15F WCI  14
LEADVILLE      LGT SNOW  20  17  88 N16G25    30.15S VSB 3/4 WCI   6
SALIDA         MOCLDY    36  17  46 SW32G44   30.15R
SUNLIGHT       CLOUDY   N/A N/A N/A SW5       30.22R HAZE
WILKERSON PASS MOCLDY    19  16  86 NW16G38   30.07R WCI   5
$$

COZ069>075-260200-
...SAN LUIS VALLEY/SANGRE DE CRISTO MOUNTAINS...

CITY           SKY/WX    TMP DP  RH WIND       PRES   REMARKS
ALAMOSA        PTCLDY    21   4  47 SE8       30.18F WCI  11
LA VETA PASS   PTCLDY    23  10  58 S14G37    30.07R WCI  11
SAGUACHE       NOT AVBL
$$

COZ035-036-038>040-260200-
...NORTHERN COLORADO FRONT RANGE...

CITY           SKY/WX    TMP DP  RH WIND       PRES   REMARKS
DENVER INTL AP MOCLDY    41  20  43 W9        29.90S
DMNS CITY PARK   N/A     47  19  32 N25G54    29.90F
AURORA         MOCLDY    44  20  39 W25G32    29.91F
FRONT RANGE AP NOT AVBL
ERIE MUNI ARPT MOCLDY    45  19  35 W15       29.89F
BOULDER MUN AP MOCLDY    46  21  36 NW9       29.87F
CENTENNIAL     MOCLDY    43  21  41 NW16G25   29.92F
BROOMFIELD     MOCLDY    45  21  39 W23       29.91F
FORT COLLINS   PTCLDY    48  21  34 NW25G38   29.88R
LONGMONT       PTCLDY    46  20  36 SE5       29.91R
$$

COZ041-046-047-076>085-087-088-260200-
...PIKES PEAK/PALMER DIVIDE AND SOUTHERN FOOTHILLS...

CITY           SKY/WX    TMP DP  RH WIND       PRES   REMARKS
COLO. SPRINGS  CLOUDY    45  17  32 NW15      29.96R
A. F. ACADEMY  CLOUDY    40  18  40 NE13      29.97R
ELLICOTT       NOT AVBL
FALCON         NOT AVBL
FORT CARSON    CLOUDY    40  17  39 S7        29.95R
LIMON          CLOUDY    35  16  45 W8        29.92R WCI  29
MONUMENT HILL  CLOUDY    36  21  55 NW14      29.95S
TRINIDAD       PTCLDY    42  21  43 NW6       29.97R
$$

COZ042>045-048>051-090-091-260200-
...NORTHEAST COLORADO...

CITY           SKY/WX    TMP DP  RH WIND       PRES   REMARKS
GREELEY ARPT   PTCLDY    45  21  39 NW18      29.88S
AKRON          CLOUDY    43  22  43 N16       29.90R
BURLINGTON     CLOUDY    49  19  30 NW22G29   29.91R
WRAY           CLOUDY    45  28  52 NW10      29.90R
STERLING       CLOUDY    43  30  61 NE10      29.91R
HOLYOKE        CLOUDY    41  32  70 N20G26    29.90R
FORT MORGAN    CLOUDY    40  20  46 N10       29.89S
$$

COZ086-089-092>099-260200-
...SOUTHEAST COLORADO...

CITY           SKY/WX    TMP DP  RH WIND       PRES   REMARKS
PUEBLO         CLOUDY    47  19  33 NW7       29.93R
LA JUNTA       PTCLDY    44  21  40 W12       29.92R
LAMAR          PTCLDY    28  14  55 SW8       29.89R WCI  20
SPRINGFIELD      N/A     29  14  53 W6        29.93R WCI  23
$$



USA.gov is the U.S. government's official web portal to all federal, state and local government web resources and services.